Location: Penton Mewsey
(51.2167°N, 1.5167°W)
Time: 18:27:11
(UTC+00:00)

NOSS 3-3 (C) - Pass Details

Date: 30 March 2020
Orbit: 836 x 1376 km, 63.4° (Epoch: 05 May)

Event Time Altitude Azimuth Distance (km) Brightness Sun altitude
Rises 21:30:45 0° 224° (SW) 3,462 6.9 -25.0°
Reaches altitude 10° 21:33:07 10° 224° (SW) 2,572 6.2 -25.2°
Maximum altitude 21:39:06 87° 315° (NW) 983 3.9 -25.9°
Drops below altitude 10° 21:45:58 10° 45° (NE) 2,925 6.5 -26.6°
Sets 21:48:48 0° 46° (NE) 3,970 7.2 -26.9°
